GFSCGP_500_temp_348.txt.gz
Temp
-4 -4 -5 -5 -5 -5 -6 -6 -5 -5 -6 -5 -5 -5 -4 -5 -4 -5 -4 -4 -4 -4 -5 -5 -6 -6 -6 -5 -6 -5 -5 -5 -5 -5 -5 -5 -5 -5 -5 -5 -5 -5 -5 -6
-5 -5 -6 -5 -4 -4 -5 -5 -4 -5 -6 -5 -5 -4 -4 -4 -4 -4 -4 -4 -4 -5 -5 -5 -6 -5 -5 -5 -5 -6 -6 -5 -5 -5 -6 -6 -5 -5 -6 -6 -6 -6 -6 -6
-5 -6 -5 -4 -4 -4 -4 -5 -5 -5 -6 -5 -5 -5 -5 -4 -4 -4 -4 -4 -4 -4 -4 -4 -4 -5 -5 -5 -5 -5 -5 -5 -4 -6 -6 -6 -6 -5 -5 -6 -6 -6 -6 -6
-5 -5 -5 -6 -5 -5 -5 -5 -6 -5 -5 -5 -5 -5 -6 -4 -4 -4 -4 -4 -4 -4 -4 -4 -4 -4 -4 -4 -5 -5 -4 -4 -5 -5 -5 -5 -6 -6 -6 -6 -7 -7 -7 -7
-4 -5 -4 -4 -6 -6 -6 -6 -6 -6 -5 -6 -5 -6 -6 -5 -4 -5 -5 -5 -5 -5 -5 -4 -4 -4 -4 -4 -5 -5 -5 -5 -5 -6 -5 -5 -5 -6 -7 -7 -7 -6 -6 -7
-4 -4 -4 -5 -6 -7 -6 -5 -6 -6 -6 -5 -6 -6 -6 -6 -5 -5 -5 -5 -5 -5 -5 -5 -4 -4 -4 -4 -5 -5 -5 -4 -5 -5 -6 -6 -6 -6 -7 -7 -7 -6 -6 -7
-5 -5 -5 -5 -6 -6 -6 -5 -5 -6 -6 -6 -6 -6 -6 -6 -6 -5 -6 -6 -4 -5 -6 -6 -5 -4 -4 -4 -4 -4 -4 -5 -5 -5 -6 -6 -7 -6 -7 -7 -7 -7 -7 -7
-5 -5 -4 -5 -5 -6 -6 -5 -5 -6 -6 -6 -6 -6 -6 -6 -5 -6 -5 -3 -3 -4 -5 -5 -5 -6 -6 -5 -4 -4 -5 -4 -5 -5 -6 -7 -7 -7 -7 -8 -8 -8 -8 -7
-6 -5 -4 -5 -6 -7 -6 -6 -5 -6 -6 -6 -6 -6 -6 -6 -6 -4 -3 -3 -3 -4 -5 -5 -5 -5 -5 -5 -5 -5 -5 -5 -5 -5 -6 -6 -7 -7 -7 -8 -9 -9 -9 -8
-6 -6 -5 -5 -6 -7 -7 -6 -6 -6 -6 -6 -6 -6 -6 -6 -5 -4 -4 -4 -4 -4 -3 -4 -4 -4 -4 -4 -4 -4 -5 -5 -5 -6 -7 -7 -7 -7 -7 -8 -8 -9 -9 -8
-5 -5 -6 -6 -6 -6 -7 -7 -7 -6 -6 -6 -5 -6 -6 -5 -6 -6 -4 -4 -4 -4 -4 -4 -5 -5 -4 -4 -4 -4 -4 -5 -6 -6 -7 -8 -8 -8 -8 -8 -7 -9 -10 -9
-5 -4 -5 -6 -6 -7 -7 -7 -7 -7 -6 -6 -6 -5 -6 -6 -5 -4 -4 -4 -4 -5 -5 -6 -5 -5 -4 -3 -4 -4 -4 -5 -6 -8 -9 -9 -9 -9 -9 -9 -7 -9 -10 -9
-6 -5 -5 -5 -6 -7 -7 -7 -7 -6 -6 -5 -5 -5 -6 -5 -5 -4 -4 -4 -5 -6 -6 -5 -5 -5 -5 -4 -4 -4 -4 -6 -6 -8 -9 -10 -10 -9 -9 -9 -8 -8 -10 -10
-5 -5 -5 -5 -5 -6 -6 -7 -7 -6 -6 -6 -6 -6 -4 -5 -4 -4 -4 -5 -6 -6 -5 -5 -5 -5 -5 -5 -5 -5 -5 -6 -7 -8 -10 -11 -10 -10 -8 -9 -9 -9 -9 -10
-5 -5 -5 -5 -5 -5 -6 -6 -7 -7 -7 -6 -6 -6 -4 -4 -4 -4 -5 -5 -6 -5 -5 -5 -5 -5 -5 -5 -5 -5 -6 -6 -7 -8 -10 -11 -11 -10 -11 -11 -10 -11 -10 -10
-5 -5 -5 -5 -5 -5 -5 -6 -6 -6 -6 -5 -5 -4 -4 -4 -4 -4 -6 -6 -7 -6 -6 -5 -5 -5 -5 -5 -5 -5 -6 -6 -7 -8 -9 -10 -10 -10 -10 -10 -10 -10 -10 -10
-5 -5 -5 -4 -5 -5 -5 -5 -5 -5 -5 -5 -4 -4 -4 -4 -5 -5 -6 -7 -6 -6 -5 -5 -5 -5 -5 -5 -5 -5 -7 -7 -7 -8 -9 -9 -10 -10 -10 -10 -10 -10 -10 -10
-5 -5 -5 -5 -5 -4 -5 -6 -6 -5 -5 -5 -5 -5 -5 -5 -5 -6 -6 -6 -6 -6 -6 -6 -6 -5 -5 -5 -5 -6 -6 -7 -7 -8 -9 -9 -9 -10 -10 -9 -9 -10 -10 -10
-5 -5 -5 -5 -5 -5 -5 -5 -6 -6 -5 -5 -5 -5 -6 -6 -6 -6 -7 -7 -7 -6 -6 -6 -5 -5 -5 -6 -6 -6 -7 -8 -8 -8 -9 -9 -9 -9 -9 -10 -10 -10 -10 -10
-5 -5 -6 -6 -5 -5 -5 -5 -5 -5 -6 -6 -7 -7 -7 -7 -7 -7 -8 -8 -7 -7 -7 -6 -6 -6 -6 -6 -6 -7 -7 -8 -8 -9 -9 -8 -9 -9 -9 -9 -9 -9 -9 -10
-6 -6 -7 -7 -6 -6 -6 -6 -6 -6 -6 -5 -6 -6 -6 -7 -7 -8 -8 -8 -7 -7 -7 -7 -6 -6 -6 -6 -6 -6 -7 -7 -7 -8 -9 -9 -9 -9 -9 -10 -9 -9 -9 -10
-6 -6 -6 -7 -7 -6 -7 -7 -7 -7 -7 -7 -7 -8 -8 -9 -9 -9 -9 -9 -8 -8 -8 -7 -7 -7 -7 -7 -7 -7 -7 -7 -7 -8 -9 -9 -10 -10 -10 -10 -10 -9 -10 -10
-6 -7 -6 -7 -7 -7 -6 -6 -6 -7 -7 -7 -8 -8 -8 -8 -9 -9 -9 -9 -9 -9 -9 -9 -8 -8 -8 -8 -8 -8 -8 -8 -7 -9 -10 -10 -10 -10 -10 -10 -10 -10 -10 -11
-6 -6 -6 -7 -7 -8 -8 -8 -8 -8 -9 -9 -9 -9 -10 -10 -10 -10 -10 -10 -10 -10 -10 -10 -9 -8 -8 -8 -8 -8 -9 -8 -9 -9 -10 -10 -10 -10 -10 -10 -10 -10 -10 -10
-6 -7 -7 -7 -8 -8 -8 -8 -9 -9 -9 -9 -10 -10 -10 -10 -10 -11 -11 -11 -10 -10 -11 -11 -10 -9 -9 -9 -9 -9 -9 -9 -9 -10 -10 -10 -10 -10 -10 -10 -11 -10 -10 -10
-7 -7 -7 -7 -7 -7 -8 -8 -9 -9 -10 -10 -10 -10 -11 -11 -11 -11 -11 -11 -11 -11 -11 -11 -11 -10 -10 -9 -9 -9 -9 -10 -10 -10 -10 -10 -10 -10 -11 -11 -11 -11 -11 -11

GFSCGP_500_temp_351.txt.gz
Temp
-4 -5 -5 -5 -6 -5 -5 -6 -5 -6 -5 -5 -5 -5 -5 -5 -5 -5 -5 -5 -5 -6 -5 -5 -5 -4 -4 -5 -5 -5 -5 -5 -5 -5 -5 -5 -6 -6 -6 -6 -6 -6 -6 -6
-4 -4 -6 -6 -6 -6 -6 -6 -5 -5 -5 -5 -5 -5 -5 -5 -5 -5 -5 -5 -5 -5 -5 -5 -5 -4 -4 -4 -5 -5 -5 -5 -5 -5 -5 -5 -5 -5 -6 -6 -6 -6 -6 -6
-4 -5 -6 -5 -5 -5 -5 -5 -5 -5 -5 -4 -5 -5 -5 -5 -5 -4 -4 -4 -4 -4 -4 -5 -5 -5 -4 -4 -4 -5 -5 -5 -5 -5 -5 -5 -6 -6 -6 -6 -7 -8 -7 -7
-5 -4 -5 -5 -4 -5 -5 -5 -6 -5 -5 -4 -4 -4 -5 -5 -5 -4 -4 -4 -4 -4 -4 -4 -4 -4 -4 -4 -4 -4 -4 -4 -5 -5 -5 -5 -6 -7 -7 -6 -7 -8 -8 -7
-6 -5 -5 -6 -5 -5 -5 -5 -6 -5 -5 -5 -4 -4 -4 -5 -5 -4 -4 -4 -4 -4 -4 -4 -4 -4 -4 -4 -4 -4 -4 -4 -4 -3 -4 -6 -6 -6 -6 -7 -7 -7 -7 -8
-6 -5 -6 -7 -6 -6 -6 -6 -6 -6 -5 -5 -5 -5 -4 -5 -4 -4 -4 -5 -5 -5 -4 -4 -4 -4 -4 -4 -4 -4 -4 -5 -5 -5 -5 -5 -5 -6 -6 -7 -8 -8 -7 -7
-6 -7 -7 -7 -7 -6 -6 -6 -6 -6 -6 -6 -6 -5 -4 -4 -4 -3 -3 -4 -5 -6 -6 -5 -4 -4 -4 -3 -4 -4 -4 -5 -5 -5 -6 -5 -5 -6 -6 -6 -7 -7 -8 -8
-6 -6 -6 -6 -6 -6 -6 -6 -6 -6 -6 -6 -6 -6 -5 -4 -4 -3 -3 -4 -4 -4 -4 -5 -5 -4 -3 -4 -4 -4 -5 -5 -5 -4 -5 -6 -6 -7 -7 -7 -8 -8 -8 -8
-6 -6 -6 -6 -6 -6 -6 -6 -6 -7 -7 -6 -6 -6 -5 -5 -4 -4 -3 -3 -4 -4 -4 -4 -4 -3 -4 -4 -4 -4 -4 -5 -4 -4 -5 -6 -6 -7 -7 -7 -8 -8 -8 -8
-6 -6 -6 -6 -6 -6 -6 -6 -7 -7 -6 -7 -6 -6 -5 -4 -4 -4 -4 -3 -3 -4 -4 -4 -4 -4 -5 -5 -4 -4 -4 -4 -4 -4 -5 -6 -6 -7 -7 -7 -9 -9 -7 -7
-6 -6 -7 -6 -6 -6 -7 -7 -7 -6 -6 -6 -6 -5 -5 -5 -4 -4 -4 -3 -4 -5 -4 -4 -5 -4 -5 -5 -4 -4 -4 -4 -4 -4 -6 -6 -6 -7 -8 -9 -9 -10 -9 -8
-5 -5 -6 -6 -6 -6 -7 -7 -7 -6 -6 -6 -5 -4 -5 -5 -5 -5 -4 -4 -4 -5 -6 -6 -5 -5 -5 -5 -4 -4 -4 -5 -4 -5 -5 -6 -6 -7 -8 -9 -10 -9 -8 -8
-6 -5 -5 -6 -6 -7 -7 -6 -7 -7 -6 -6 -6 -5 -5 -5 -5 -5 -5 -5 -5 -6 -7 -6 -5 -5 -5 -5 -5 -5 -5 -5 -5 -5 -6 -6 -7 -8 -9 -10 -10 -9 -8 -8
-5 -5 -6 -5 -6 -6 -6 -6 -6 -6 -7 -6 -5 -5 -5 -5 -5 -6 -5 -6 -6 -7 -7 -7 -6 -6 -6 -6 -5 -5 -5 -5 -5 -5 -6 -7 -7 -7 -9 -10 -10 -11 -10 -9
-5 -6 -5 -6 -6 -5 -6 -6 -6 -7 -7 -5 -5 -4 -4 -4 -5 -5 -6 -7 -8 -8 -8 -8 -7 -7 -6 -6 -6 -5 -5 -5 -5 -5 -6 -7 -7 -7 -8 -9 -10 -10 -10 -10
-6 -6 -5 -5 -6 -5 -5 -6 -6 -6 -5 -5 -5 -5 -5 -5 -6 -6 -6 -7 -8 -8 -8 -8 -7 -7 -7 -6 -6 -5 -6 -5 -5 -5 -7 -7 -7 -7 -8 -9 -9 -10 -11 -10
-6 -6 -5 -4 -5 -5 -5 -5 -5 -5 -5 -5 -5 -5 -5 -5 -6 -6 -6 -7 -7 -8 -8 -8 -8 -7 -7 -7 -6 -6 -6 -5 -5 -6 -7 -7 -8 -7 -8 -8 -9 -9 -10 -10
-5 -5 -5 -5 -5 -5 -6 -6 -6 -5 -5 -5 -5 -6 -6 -7 -7 -7 -8 -8 -8 -9 -9 -9 -8 -7 -7 -7 -6 -6 -6 -6 -6 -6 -7 -8 -8 -8 -8 -8 -9 -9 -9 -10
-5 -6 -5 -5 -6 -5 -6 -6 -5 -5 -5 -5 -6 -6 -6 -6 -7 -8 -8 -8 -9 -9 -9 -9 -8 -8 -8 -7 -7 -7 -6 -6 -6 -7 -8 -8 -8 -8 -8 -8 -9 -9 -10 -10
-6 -6 -6 -6 -6 -5 -6 -6 -6 -5 -5 -6 -6 -6 -6 -7 -7 -8 -8 -8 -9 -9 -10 -9 -8 -9 -8 -8 -8 -7 -7 -7 -7 -7 -7 -8 -8 -9 -9 -9 -9 -9 -9 -10
-6 -6 -6 -6 -6 -6 -6 -6 -6 -6 -6 -6 -6 -6 -6 -7 -8 -8 -9 -10 -10 -11 -10 -10 -9 -9 -9 -8 -8 -8 -8 -7 -8 -6 -8 -8 -9 -9 -9 -9 -9 -9 -9 -9
-6 -6 -6 -6 -6 -6 -6 -6 -6 -6 -6 -6 -7 -7 -7 -7 -8 -9 -10 -10 -10 -9 -9 -9 -10 -9 -9 -9 -9 -9 -9 -9 -8 -7 -8 -8 -9 -10 -10 -9 -9 -10 -10 -10
-6 -6 -6 -6 -6 -6 -6 -6 -6 -6 -6 -7 -7 -7 -8 -9 -9 -10 -10 -11 -10 -10 -10 -10 -10 -10 -10 -11 -10 -10 -10 -9 -9 -9 -9 -9 -9 -10 -10 -10 -10 -10 -10 -10
-6 -6 -6 -6 -6 -6 -6 -6 -7 -7 -7 -7 -8 -9 -9 -10 -10 -11 -11 -12 -11 -11 -11 -10 -10 -11 -11 -11 -11 -11 -11 -10 -9 -9 -9 -10 -10 -10 -10 -10 -11 -11 -11 -10
-6 -6 -6 -6 -7 -7 -7 -7 -7 -7 -7 -8 -9 -10 -10 -10 -10 -11 -12 -12 -11 -11 -11 -11 -11 -11 -11 -11 -11 -11 -11 -10 -10 -10 -10 -10 -10 -10 -10 -11 -10 -11 -11 -11
-7 -7 -7 -7 -7 -7 -8 -8 -8 -9 -9 -9 -10 -10 -10 -11 -11 -12 -11 -12 -11 -11 -11 -11 -11 -12 -12 -12 -12 -11 -11 -11 -11 -10 -11 -11 -11 -11 -11 -11 -11 -11 -11 -11

GFSCGP_500_temp_354.txt.gz
Temp
-5 -5 -5 -5 -5 -5 -5 -4 -4 -4 -5 -5 -5 -5 -5 -5 -5 -5 -6 -5 -5 -5 -5 -5 -5 -5 -5 -5 -5 -5 -6 -6 -5 -6 -6 -6 -6 -6 -6 -6 -6 -6 -7 -7
-6 -5 -5 -5 -4 -5 -5 -5 -5 -5 -5 -5 -5 -5 -6 -6 -6 -6 -6 -5 -5 -5 -5 -4 -4 -5 -5 -5 -5 -5 -4 -5 -5 -5 -5 -6 -7 -7 -7 -6 -6 -7 -7 -7
-5 -5 -5 -5 -5 -5 -5 -6 -6 -5 -5 -5 -5 -6 -6 -6 -6 -5 -5 -5 -5 -5 -5 -5 -5 -5 -5 -5 -5 -5 -5 -4 -4 -4 -5 -5 -6 -6 -7 -7 -7 -7 -7 -7
-5 -5 -5 -5 -5 -5 -4 -6 -5 -5 -5 -5 -5 -5 -5 -6 -6 -6 -5 -4 -4 -4 -5 -5 -5 -5 -5 -5 -5 -5 -5 -5 -5 -4 -4 -5 -6 -6 -6 -7 -7 -7 -8 -8
-5 -5 -6 -6 -5 -5 -6 -6 -5 -5 -4 -5 -5 -5 -6 -5 -5 -6 -5 -4 -4 -4 -4 -4 -4 -5 -4 -4 -4 -5 -5 -5 -5 -5 -5 -5 -5 -6 -7 -7 -8 -8 -8 -8
-5 -5 -5 -7 -7 -6 -6 -6 -6 -5 -5 -5 -5 -5 -5 -5 -4 -5 -5 -5 -4 -5 -5 -5 -5 -5 -5 -4 -5 -5 -5 -5 -5 -5 -5 -5 -6 -6 -6 -7 -7 -8 -8 -9
-5 -5 -7 -7 -7 -7 -6 -6 -6 -6 -5 -5 -5 -5 -5 -4 -4 -4 -5 -5 -5 -5 -6 -5 -5 -5 -4 -4 -4 -4 -5 -5 -5 -5 -5 -5 -5 -5 -6 -6 -7 -8 -8 -8
-6 -7 -7 -7 -7 -6 -6 -6 -7 -6 -6 -6 -5 -5 -5 -4 -4 -4 -4 -5 -5 -5 -5 -5 -5 -4 -4 -4 -4 -4 -4 -4 -5 -5 -5 -5 -5 -5 -6 -6 -7 -7 -8 -9
-7 -7 -7 -7 -7 -7 -6 -6 -6 -7 -7 -6 -5 -5 -5 -5 -5 -4 -4 -4 -4 -5 -5 -5 -4 -3 -4 -4 -4 -5 -5 -5 -5 -5 -5 -5 -5 -6 -6 -6 -7 -7 -8 -9
-7 -7 -7 -7 -6 -6 -6 -6 -6 -6 -5 -6 -6 -6 -5 -5 -5 -4 -4 -4 -5 -5 -5 -5 -4 -4 -3 -4 -4 -5 -4 -4 -5 -5 -5 -5 -4 -5 -6 -6 -7 -7 -8 -9
-6 -6 -7 -6 -6 -6 -6 -5 -5 -5 -5 -6 -6 -6 -6 -5 -5 -5 -5 -5 -6 -5 -5 -5 -5 -4 -4 -4 -5 -5 -5 -5 -4 -5 -5 -5 -5 -6 -6 -7 -7 -7 -8 -10
-6 -6 -6 -6 -6 -6 -6 -6 -6 -6 -6 -5 -5 -5 -7 -6 -6 -6 -6 -6 -5 -5 -6 -6 -6 -5 -5 -5 -5 -5 -5 -5 -5 -5 -5 -5 -5 -6 -6 -7 -7 -8 -9 -10
-5 -5 -6 -6 -6 -6 -6 -6 -6 -6 -6 -5 -5 -4 -6 -6 -6 -6 -6 -6 -6 -6 -7 -7 -7 -6 -6 -5 -5 -5 -5 -5 -5 -5 -5 -5 -6 -6 -7 -7 -8 -8 -8 -9
-5 -6 -6 -6 -6 -6 -6 -6 -6 -6 -6 -5 -5 -4 -5 -5 -5 -6 -6 -7 -7 -7 -7 -7 -7 -7 -7 -6 -5 -5 -6 -6 -6 -6 -6 -5 -6 -6 -7 -7 -7 -8 -8 -9
-5 -6 -6 -6 -6 -6 -6 -6 -6 -6 -6 -5 -5 -5 -5 -6 -6 -6 -6 -6 -6 -7 -7 -7 -8 -8 -7 -7 -6 -6 -6 -6 -6 -6 -6 -6 -6 -7 -7 -7 -8 -8 -8 -9
-6 -5 -6 -6 -6 -5 -5 -6 -6 -6 -6 -6 -5 -5 -6 -6 -6 -6 -6 -6 -7 -8 -8 -8 -8 -8 -7 -7 -6 -6 -6 -6 -6 -6 -6 -6 -6 -7 -7 -7 -7 -8 -8 -8
-6 -6 -6 -5 -5 -5 -5 -6 -6 -5 -6 -6 -6 -6 -6 -6 -6 -6 -6 -7 -7 -8 -9 -9 -8 -8 -7 -7 -7 -7 -7 -7 -7 -7 -6 -6 -6 -7 -7 -7 -7 -8 -8 -9
-6 -6 -6 -5 -6 -5 -6 -6 -5 -5 -6 -6 -6 -6 -6 -6 -6 -6 -7 -7 -8 -8 -9 -9 -9 -9 -8 -7 -7 -7 -7 -7 -7 -8 -7 -7 -7 -7 -8 -8 -7 -8 -8 -9
-6 -6 -5 -5 -5 -5 -5 -5 -6 -5 -6 -6 -6 -6 -6 -6 -6 -7 -7 -7 -8 -8 -8 -8 -8 -8 -8 -8 -7 -8 -7 -8 -8 -8 -8 -7 -7 -7 -8 -8 -8 -8 -9 -9
-6 -6 -6 -6 -5 -5 -5 -5 -5 -5 -5 -6 -6 -6 -6 -6 -6 -6 -7 -7 -8 -8 -9 -9 -9 -9 -9 -9 -9 -9 -9 -9 -8 -9 -9 -8 -8 -8 -8 -8 -8 -8 -9 -9
-6 -6 -6 -6 -6 -6 -6 -6 -6 -6 -6 -6 -6 -6 -7 -7 -7 -7 -7 -8 -8 -9 -9 -10 -10 -10 -10 -10 -10 -10 -10 -9 -9 -10 -9 -9 -9 -8 -9 -8 -9 -9 -9 -9
-6 -6 -6 -6 -6 -6 -6 -6 -6 -6 -6 -6 -6 -7 -7 -7 -7 -8 -8 -9 -9 -9 -10 -11 -10 -11 -10 -10 -10 -10 -10 -10 -10 -10 -10 -10 -10 -10 -10 -9 -9 -10 -10 -10
-6 -6 -6 -6 -6 -6 -6 -6 -6 -6 -6 -7 -7 -7 -7 -7 -8 -8 -9 -10 -10 -11 -11 -11 -11 -11 -10 -10 -10 -10 -11 -11 -11 -11 -11 -11 -10 -10 -10 -9 -10 -10 -10 -10
-6 -6 -6 -6 -6 -6 -6 -7 -7 -7 -7 -7 -7 -7 -8 -8 -8 -9 -9 -10 -11 -11 -12 -11 -11 -11 -11 -11 -11 -11 -11 -11 -11 -12 -11 -11 -11 -11 -11 -11 -10 -10 -10 -10
-6 -6 -6 -6 -7 -7 -7 -7 -7 -7 -7 -8 -8 -8 -8 -8 -9 -9 -10 -10 -11 -11 -11 -11 -11 -12 -12 -12 -12 -12 -12 -12 -12 -12 -12 -12 -12 -12 -11 -11 -11 -11 -11 -10
-7 -7 -7 -7 -7 -7 -7 -7 -8 -8 -8 -8 -9 -9 -9 -9 -9 -9 -10 -11 -11 -11 -10 -11 -12 -12 -12 -12 -12 -12 -12 -12 -12 -12 -12 -12 -12 -12 -11 -11 -11 -12 -11 -11

GFSCGP_500_temp_357.txt.gz
Temp
-5 -6 -5 -5 -5 -4 -5 -4 -5 -5 -5 -5 -5 -6 -5 -5 -5 -5 -5 -6 -6 -6 -6 -6 -6 -5 -5 -5 -5 -6 -5 -6 -5 -5 -5 -5 -5 -6 -6 -7 -7 -7 -7 -7
-6 -5 -5 -5 -5 -5 -5 -5 -5 -5 -5 -5 -6 -6 -5 -5 -5 -5 -5 -5 -5 -5 -5 -5 -5 -5 -5 -5 -5 -5 -5 -5 -5 -5 -5 -5 -5 -5 -5 -6 -7 -7 -7 -7
-6 -6 -5 -5 -5 -5 -5 -6 -6 -6 -6 -5 -5 -6 -6 -6 -6 -5 -5 -5 -5 -5 -5 -5 -5 -5 -4 -4 -5 -4 -4 -4 -4 -5 -5 -5 -5 -5 -6 -6 -6 -7 -7 -8
-6 -6 -5 -5 -5 -6 -6 -6 -6 -6 -5 -5 -6 -6 -6 -6 -6 -6 -5 -5 -5 -5 -5 -5 -5 -5 -5 -5 -5 -5 -5 -5 -5 -5 -5 -5 -5 -5 -5 -6 -6 -6 -7 -7
-5 -5 -5 -5 -6 -6 -6 -6 -6 -5 -5 -5 -6 -6 -6 -6 -6 -6 -6 -5 -5 -4 -5 -5 -5 -5 -5 -5 -5 -5 -5 -5 -5 -5 -5 -5 -4 -5 -5 -5 -6 -6 -7 -7
-5 -5 -5 -5 -6 -6 -6 -6 -5 -5 -6 -6 -6 -6 -6 -6 -6 -6 -6 -6 -6 -5 -6 -6 -5 -5 -5 -5 -5 -5 -5 -5 -5 -5 -5 -5 -5 -4 -4 -4 -5 -6 -7 -7
-4 -4 -5 -5 -7 -6 -6 -6 -5 -5 -5 -6 -6 -6 -7 -6 -6 -6 -6 -6 -6 -6 -6 -6 -6 -6 -5 -5 -5 -4 -5 -5 -5 -5 -5 -5 -4 -4 -4 -4 -5 -6 -6 -7
-5 -6 -6 -6 -6 -6 -6 -6 -6 -5 -5 -6 -6 -6 -6 -7 -7 -7 -7 -6 -6 -6 -6 -6 -6 -5 -5 -5 -4 -4 -4 -4 -5 -5 -5 -4 -4 -4 -5 -5 -5 -5 -5 -7
-5 -6 -6 -6 -6 -6 -6 -6 -6 -6 -6 -6 -6 -6 -6 -7 -7 -7 -7 -7 -6 -5 -5 -5 -5 -5 -4 -4 -3 -4 -4 -4 -5 -5 -5 -5 -4 -5 -5 -5 -5 -5 -6 -6
-6 -7 -7 -7 -7 -7 -6 -6 -6 -6 -6 -6 -6 -6 -7 -7 -7 -7 -7 -7 -7 -6 -6 -6 -5 -5 -4 -4 -4 -4 -4 -4 -4 -5 -5 -5 -5 -5 -5 -5 -5 -5 -6 -6
-7 -7 -7 -7 -7 -7 -7 -7 -6 -6 -6 -6 -6 -6 -7 -7 -7 -7 -7 -7 -6 -6 -6 -6 -5 -4 -4 -4 -4 -4 -4 -4 -5 -5 -5 -5 -5 -5 -5 -5 -5 -5 -6 -6
-7 -7 -7 -7 -7 -6 -6 -6 -6 -6 -6 -6 -6 -5 -6 -6 -6 -6 -6 -6 -6 -6 -6 -6 -6 -5 -5 -5 -5 -5 -5 -5 -5 -5 -5 -5 -5 -5 -5 -5 -6 -5 -6 -6
-6 -6 -6 -7 -7 -6 -6 -6 -6 -6 -6 -5 -5 -5 -6 -6 -6 -6 -5 -6 -6 -6 -6 -6 -6 -6 -6 -6 -6 -5 -5 -5 -5 -6 -6 -6 -5 -5 -6 -6 -6 -6 -6 -6
-6 -6 -6 -6 -6 -6 -6 -6 -6 -6 -6 -6 -5 -5 -6 -5 -5 -6 -6 -6 -6 -6 -6 -6 -7 -7 -7 -7 -7 -6 -6 -6 -6 -6 -6 -6 -6 -6 -6 -6 -6 -6 -6 -7
-7 -6 -6 -6 -6 -6 -6 -6 -7 -6 -6 -6 -5 -5 -5 -5 -5 -5 -5 -6 -6 -6 -6 -6 -7 -7 -7 -7 -7 -7 -6 -6 -6 -6 -6 -6 -6 -6 -7 -7 -7 -7 -7 -7
-6 -6 -6 -5 -6 -6 -5 -6 -6 -6 -6 -5 -5 -5 -6 -6 -5 -5 -6 -6 -6 -6 -6 -6 -7 -7 -7 -7 -7 -7 -6 -6 -6 -7 -7 -7 -7 -6 -7 -7 -7 -7 -7 -7
-6 -6 -5 -5 -6 -5 -5 -6 -6 -6 -6 -5 -5 -5 -5 -6 -6 -6 -6 -6 -6 -7 -7 -7 -7 -7 -7 -7 -7 -7 -7 -7 -7 -7 -7 -7 -7 -7 -7 -7 -7 -7 -7 -7
-6 -6 -5 -5 -5 -5 -5 -5 -5 -5 -6 -6 -6 -6 -6 -6 -6 -6 -6 -6 -7 -7 -7 -7 -7 -8 -7 -7 -7 -7 -8 -8 -8 -8 -8 -8 -8 -9 -9 -8 -8 -8 -8 -8
-7 -6 -5 -5 -5 -5 -5 -5 -5 -6 -6 -6 -6 -6 -6 -6 -6 -7 -7 -7 -7 -7 -7 -7 -7 -7 -8 -8 -8 -9 -9 -9 -9 -9 -9 -9 -9 -9 -9 -9 -9 -8 -8 -8
-6 -6 -6 -6 -5 -5 -5 -5 -5 -5 -5 -6 -6 -6 -6 -6 -7 -7 -7 -7 -7 -7 -8 -8 -8 -8 -9 -9 -10 -10 -10 -10 -10 -10 -10 -10 -10 -10 -10 -9 -9 -9 -9 -8
-6 -6 -6 -6 -6 -5 -5 -5 -6 -6 -6 -6 -6 -6 -6 -7 -7 -7 -7 -7 -7 -8 -8 -8 -8 -9 -10 -10 -10 -10 -10 -10 -10 -10 -10 -10 -10 -11 -11 -10 -10 -10 -9 -9
-6 -6 -6 -6 -6 -6 -6 -6 -6 -6 -6 -6 -6 -7 -6 -7 -7 -7 -7 -8 -8 -8 -9 -9 -9 -10 -11 -11 -11 -11 -11 -11 -11 -11 -11 -11 -11 -11 -11 -11 -11 -11 -10 -10
-6 -6 -6 -6 -6 -6 -6 -6 -6 -6 -6 -6 -6 -7 -7 -7 -7 -8 -8 -8 -9 -9 -9 -10 -11 -11 -12 -12 -12 -11 -12 -11 -11 -11 -11 -11 -12 -12 -12 -12 -11 -11 -11 -11
-6 -6 -6 -6 -6 -6 -6 -7 -7 -7 -7 -7 -7 -7 -7 -8 -8 -8 -9 -9 -10 -10 -11 -10 -10 -11 -11 -12 -12 -13 -12 -12 -12 -12 -12 -12 -12 -12 -12 -12 -12 -11 -11 -11
-6 -6 -6 -6 -7 -7 -7 -7 -7 -7 -7 -7 -8 -8 -8 -9 -9 -9 -9 -10 -10 -11 -11 -10 -10 -11 -11 -11 -12 -12 -12 -12 -12 -12 -13 -13 -12 -12 -13 -13 -12 -12 -11 -11
-6 -6 -6 -7 -7 -7 -7 -7 -8 -8 -8 -8 -9 -9 -9 -9 -9 -10 -10 -10 -11 -11 -12 -11 -11 -11 -11 -12 -12 -12 -12 -12 -12 -12 -13 -12 -13 -13 -13 -13 -12 -12 -12 -12

GFSCGP_500_temp_360.txt.gz
Temp
-5 -6 -6 -5 -5 -5 -5 -5 -5 -5 -5 -5 -5 -5 -4 -5 -5 -5 -5 -5 -5 -5 -5 -6 -5 -5 -5 -5 -5 -5 -5 -5 -5 -5 -5 -5 -5 -5 -5 -5 -5 -5 -6 -6
-5 -6 -6 -6 -5 -5 -5 -5 -5 -6 -5 -5 -5 -5 -4 -5 -5 -5 -5 -5 -5 -5 -5 -5 -5 -5 -5 -5 -5 -5 -5 -4 -4 -4 -4 -4 -4 -4 -4 -5 -5 -6 -6 -6
-5 -6 -6 -5 -5 -6 -6 -6 -6 -6 -6 -5 -5 -6 -5 -5 -5 -5 -5 -5 -5 -5 -5 -5 -5 -5 -5 -5 -4 -4 -4 -4 -4 -4 -4 -4 -5 -5 -5 -4 -5 -5 -6 -6
-5 -6 -6 -5 -6 -6 -6 -6 -6 -6 -6 -6 -6 -7 -6 -6 -5 -5 -5 -6 -5 -5 -5 -5 -5 -4 -4 -5 -4 -4 -4 -4 -4 -4 -4 -4 -5 -5 -5 -4 -5 -4 -6 -5
-6 -6 -6 -5 -5 -6 -6 -6 -6 -6 -6 -6 -6 -6 -6 -6 -6 -6 -6 -6 -6 -6 -5 -5 -5 -5 -5 -5 -5 -5 -5 -5 -5 -4 -4 -4 -5 -5 -5 -5 -5 -5 -5 -6
-6 -6 -6 -6 -6 -5 -6 -6 -6 -6 -6 -5 -6 -6 -6 -7 -7 -7 -6 -7 -7 -6 -6 -6 -5 -5 -5 -5 -5 -5 -5 -5 -5 -4 -4 -4 -4 -4 -5 -4 -4 -5 -5 -5
-6 -6 -6 -6 -6 -6 -6 -6 -5 -6 -5 -6 -6 -6 -6 -7 -7 -7 -7 -7 -7 -6 -6 -6 -5 -5 -5 -5 -5 -5 -5 -5 -4 -4 -4 -4 -4 -4 -5 -5 -4 -5 -5 -5
-7 -7 -5 -5 -6 -6 -6 -6 -6 -6 -5 -6 -6 -6 -6 -7 -7 -7 -7 -7 -7 -7 -6 -5 -5 -5 -5 -5 -5 -5 -5 -4 -4 -4 -4 -4 -4 -5 -5 -5 -5 -5 -5 -5
-7 -7 -6 -6 -6 -6 -7 -7 -6 -7 -6 -6 -6 -7 -7 -7 -7 -7 -7 -7 -7 -7 -6 -6 -5 -5 -5 -5 -4 -4 -4 -4 -4 -5 -5 -5 -5 -5 -5 -5 -5 -5 -5 -5
-6 -7 -6 -6 -6 -6 -6 -6 -7 -6 -7 -6 -6 -7 -6 -7 -7 -7 -7 -7 -7 -7 -7 -6 -6 -5 -5 -4 -4 -4 -4 -4 -4 -5 -5 -5 -5 -5 -5 -5 -5 -5 -5 -5
-7 -7 -7 -7 -7 -7 -7 -7 -6 -7 -7 -7 -6 -6 -7 -6 -6 -7 -7 -7 -7 -7 -6 -6 -6 -6 -5 -5 -5 -4 -4 -4 -4 -5 -5 -5 -5 -5 -5 -5 -5 -5 -5 -5
-7 -7 -7 -8 -6 -6 -6 -6 -7 -7 -7 -7 -6 -7 -6 -6 -6 -6 -6 -6 -6 -6 -6 -6 -5 -6 -5 -5 -5 -5 -5 -5 -5 -5 -5 -5 -6 -5 -5 -5 -5 -5 -6 -6
-7 -7 -7 -7 -7 -7 -6 -6 -6 -6 -6 -7 -7 -7 -7 -6 -5 -5 -5 -5 -5 -5 -6 -6 -6 -6 -6 -6 -6 -6 -6 -6 -6 -6 -5 -6 -6 -6 -5 -5 -5 -6 -6 -6
-6 -8 -8 -7 -8 -7 -6 -7 -6 -6 -6 -7 -7 -7 -6 -5 -5 -5 -5 -6 -6 -6 -6 -6 -6 -6 -7 -7 -7 -7 -7 -7 -6 -6 -6 -6 -6 -6 -6 -6 -6 -6 -6 -6
-7 -7 -7 -6 -6 -6 -6 -6 -6 -6 -6 -6 -6 -6 -6 -5 -6 -5 -5 -5 -5 -6 -6 -6 -7 -7 -7 -7 -7 -7 -7 -7 -7 -7 -7 -7 -7 -7 -7 -7 -7 -6 -7 -7
-7 -7 -6 -5 -6 -7 -5 -6 -6 -6 -6 -6 -5 -6 -5 -5 -5 -6 -6 -6 -6 -6 -6 -7 -7 -7 -7 -7 -7 -7 -7 -8 -8 -8 -8 -8 -8 -8 -8 -8 -7 -7 -7 -7
-7 -7 -6 -5 -5 -5 -5 -5 -5 -6 -6 -5 -5 -5 -5 -5 -6 -6 -6 -6 -6 -6 -6 -7 -7 -7 -7 -7 -8 -8 -8 -8 -8 -8 -9 -9 -9 -8 -9 -9 -9 -8 -8 -8
-7 -7 -6 -5 -5 -5 -6 -5 -5 -5 -5 -5 -5 -5 -5 -5 -6 -6 -6 -6 -6 -6 -7 -7 -7 -7 -7 -8 -8 -8 -8 -9 -9 -9 -9 -9 -9 -10 -10 -10 -10 -9 -9 -9
-7 -7 -7 -6 -6 -5 -5 -5 -5 -6 -6 -5 -6 -6 -6 -6 -6 -6 -6 -6 -7 -7 -7 -7 -8 -8 -8 -8 -9 -9 -9 -10 -10 -10 -10 -10 -10 -10 -10 -10 -10 -10 -10 -10
-7 -7 -7 -6 -5 -5 -6 -5 -5 -6 -6 -5 -5 -5 -6 -6 -6 -7 -7 -7 -7 -7 -8 -8 -8 -9 -9 -9 -10 -10 -10 -11 -11 -11 -11 -11 -11 -11 -11 -11 -11 -11 -11 -10
-6 -6 -6 -6 -6 -6 -5 -5 -6 -6 -6 -6 -6 -6 -6 -6 -7 -7 -7 -7 -8 -8 -8 -8 -9 -9 -10 -10 -10 -10 -11 -12 -11 -11 -11 -11 -11 -11 -11 -11 -11 -11 -11 -11
-6 -6 -6 -6 -6 -6 -5 -6 -6 -6 -6 -6 -6 -6 -7 -7 -7 -7 -7 -8 -8 -8 -9 -9 -9 -9 -10 -10 -10 -10 -12 -12 -12 -12 -11 -11 -11 -11 -11 -11 -11 -11 -12 -11
-6 -6 -6 -7 -7 -6 -6 -6 -6 -6 -6 -6 -7 -7 -7 -7 -7 -8 -8 -8 -9 -9 -9 -9 -10 -10 -11 -11 -11 -11 -13 -13 -12 -12 -12 -11 -12 -12 -12 -12 -12 -11 -12 -12
-6 -6 -6 -6 -6 -6 -7 -6 -6 -7 -7 -7 -7 -7 -7 -8 -8 -8 -8 -9 -9 -9 -9 -10 -10 -10 -11 -12 -12 -12 -12 -12 -12 -12 -11 -12 -12 -13 -13 -13 -12 -12 -12 -12
-6 -6 -6 -6 -6 -7 -7 -7 -7 -7 -7 -7 -8 -8 -8 -8 -8 -9 -9 -9 -9 -10 -10 -10 -10 -10 -10 -11 -12 -12 -11 -11 -11 -12 -12 -12 -13 -13 -12 -12 -13 -12 -12 -12
-6 -7 -7 -7 -6 -7 -7 -7 -7 -7 -8 -8 -8 -9 -9 -9 -9 -9 -10 -10 -10 -10 -11 -11 -11 -11 -11 -11 -11 -11 -11 -11 -11 -12 -12 -12 -12 -12 -12 -13 -12 -12 -13 -12